Time,TemperatureF,DewpointF,PressureIn,WindDirection,WindDirectionDegrees,WindSpeedMPH,WindSpeedGustMPH,Humidity,HourlyPrecipIn,Conditions,Clouds,dailyrainin,SoftwareType,DateUTC
2013-03-30 08:50:00,29.2,27.3,30.23,West,270,0.0,0.0,93,-99.99,,,-99.99,VWS V14.01,2013-03-30 12:50:00,
2013-03-30 08:55:00,29.4,27.3,30.23,West,270,0.0,0.0,92,-99.99,,,-99.99,VWS V14.01,2013-03-30 12:55:00,
2013-03-30 09:00:00,29.7,27.5,30.23,West,270,0.0,0.0,91,-99.99,,,-99.99,VWS V14.01,2013-03-30 13:00:00,
2013-03-30 09:05:00,30.0,27.7,30.24,West,270,0.0,0.0,91,-99.99,,,-99.99,VWS V14.01,2013-03-30 13:05:00,
2013-03-30 09:10:00,30.4,27.9,30.24,West,270,0.0,0.0,90,-99.99,,,-99.99,VWS V14.01,2013-03-30 13:10:00,
2013-03-30 09:15:00,30.3,27.3,30.24,West,270,0.0,0.0,89,-99.99,,,-99.99,VWS V14.01,2013-03-30 13:15:00,
2013-03-30 09:20:00,30.8,27.2,30.24,West,270,0.0,0.0,86,-99.99,,,-99.99,VWS V14.01,2013-03-30 13:20:00,
2013-03-30 09:25:00,31.3,27.3,30.24,West,270,0.0,0.0,85,-99.99,,,-99.99,VWS V14.01,2013-03-30 13:25:00,
2013-03-30 09:30:00,31.6,27.6,30.25,West,270,0.0,0.0,85,-99.99,,,-99.99,VWS V14.01,2013-03-30 13:30:00,
2013-03-30 09:35:00,32.0,27.7,30.25,West,270,0.0,0.0,84,-99.99,,,-99.99,VWS V14.01,2013-03-30 13:35:00,
2013-03-30 09:40:00,32.4,28.0,30.25,West,270,0.0,0.0,84,-99.99,,,-99.99,VWS V14.01,2013-03-30 13:40:00,
2013-03-30 09:45:00,33.1,27.7,30.25,West,270,0.0,0.0,80,-99.99,,,-99.99,VWS V14.01,2013-03-30 13:45:00,
2013-03-30 09:50:00,33.6,27.8,30.25,West,270,0.0,0.0,79,-99.99,,,-99.99,VWS V14.01,2013-03-30 13:50:00,
2013-03-30 09:55:00,34.1,28.1,30.25,West,270,0.0,0.0,78,-99.99,,,-99.99,VWS V14.01,2013-03-30 13:55:00,
2013-03-30 10:00:00,34.3,28.0,30.25,West,270,0.0,0.0,77,-99.99,,,-99.99,VWS V14.01,2013-03-30 14:00:00,
2013-03-30 10:05:00,34.5,27.9,30.25,West,270,0.0,0.0,77,-99.99,,,-99.99,VWS V14.01,2013-03-30 14:05:00,
2013-03-30 10:10:00,34.9,28.0,30.25,West,270,0.0,0.0,76,-99.99,,,-99.99,VWS V14.01,2013-03-30 14:10:00,
2013-03-30 10:15:00,35.4,28.0,30.25,West,270,0.0,0.0,74,-99.99,,,-99.99,VWS V14.01,2013-03-30 14:15:00,
2013-03-30 10:20:00,35.9,27.7,30.25,West,270,0.0,0.0,72,-99.99,,,-99.99,VWS V14.01,2013-03-30 14:20:00,
2013-03-30 10:25:00,36.4,27.8,30.25,West,270,0.0,0.0,71,-99.99,,,-99.99,VWS V14.01,2013-03-30 14:25:00,
2013-03-30 10:30:00,36.8,28.1,30.25,West,270,0.0,0.0,70,-99.99,,,-99.99,VWS V14.01,2013-03-30 14:30:00,
2013-03-30 10:35:00,37.1,28.1,30.25,West,270,0.0,0.0,70,-99.99,,,-99.99,VWS V14.01,2013-03-30 14:35:00,
2013-03-30 10:40:00,37.5,27.3,30.25,West,270,0.0,0.0,66,-99.99,,,-99.99,VWS V14.01,2013-03-30 14:40:00,
2013-03-30 10:45:00,37.9,26.8,30.25,West,270,0.0,0.0,64,-99.99,,,-99.99,VWS V14.01,2013-03-30 14:45:00,
2013-03-30 10:50:00,38.6,27.3,30.25,West,270,0.0,0.0,63,-99.99,,,-99.99,VWS V14.01,2013-03-30 14:50:00,
2013-03-30 10:55:00,39.3,27.3,30.24,West,270,0.0,0.0,62,-99.99,,,-99.99,VWS V14.01,2013-03-30 14:55:00,
2013-03-30 11:00:00,40.0,26.5,30.24,West,270,0.0,0.0,58,-99.99,,,-99.99,VWS V14.01,2013-03-30 15:00:00,
2013-03-30 11:05:00,40.8,27.2,30.24,West,270,0.0,0.0,58,-99.99,,,-99.99,VWS V14.01,2013-03-30 15:05:00,
2013-03-30 11:10:00,40.9,27.2,30.24,West,270,0.0,0.0,58,-99.99,,,-99.99,VWS V14.01,2013-03-30 15:10:00,
2013-03-30 11:15:00,41.2,25.6,30.23,West,270,0.0,0.0,53,-99.99,,,-99.99,VWS V14.01,2013-03-30 15:15:00,
2013-03-30 11:20:00,41.4,24.7,30.23,West,270,0.0,0.0,51,-99.99,,,-99.99,VWS V14.01,2013-03-30 15:20:00,
2013-03-30 11:25:00,41.8,24.2,30.23,West,270,0.0,0.0,49,-99.99,,,-99.99,VWS V14.01,2013-03-30 15:25:00,
2013-03-30 11:30:00,42.2,23.9,30.23,West,270,0.0,0.0,48,-99.99,,,-99.99,VWS V14.01,2013-03-30 15:30:00,
2013-03-30 11:35:00,42.6,21.5,30.23,West,270,0.0,0.0,43,-99.99,,,-99.99,VWS V14.01,2013-03-30 15:35:00,
2013-03-30 11:40:00,43.1,21.5,30.23,WNW,288,4.3,4.3,42,-99.99,,,-99.99,VWS V14.01,2013-03-30 15:40:00,
2013-03-30 11:45:00,43.3,21.8,30.22,WNW,288,0.0,0.0,42,-99.99,,,-99.99,VWS V14.01,2013-03-30 15:45:00,
2013-03-30 11:50:00,43.6,21.6,30.22,WNW,288,0.0,0.0,41,-99.99,,,-99.99,VWS V14.01,2013-03-30 15:50:00,
2013-03-30 11:55:00,43.9,21.5,30.22,NNW,333,0.0,4.3,40,-99.99,,,-99.99,VWS V14.01,2013-03-30 15:55:00,
2013-03-30 12:00:00,44.2,21.1,30.22,WSW,253,0.0,0.0,40,-99.99,,,-99.99,VWS V14.01,2013-03-30 16:00:00,
2013-03-30 12:05:00,44.6,21.5,30.22,WSW,253,0.0,0.0,40,-99.99,,,-99.99,VWS V14.01,2013-03-30 16:05:00,
2013-03-30 12:10:00,44.6,21.4,30.22,WSW,253,0.0,0.0,39,-99.99,,,-99.99,VWS V14.01,2013-03-30 16:10:00,
2013-03-30 12:15:00,44.9,21.2,30.21,WSW,253,0.0,0.0,38,-99.99,,,-99.99,VWS V14.01,2013-03-30 16:15:00,
2013-03-30 12:20:00,45.1,21.0,30.21,WSW,253,0.0,0.0,38,-99.99,,,-99.99,VWS V14.01,2013-03-30 16:20:00,
2013-03-30 12:25:00,45.7,23.1,30.21,WSW,253,0.0,0.0,40,-99.99,,,-99.99,VWS V14.01,2013-03-30 16:25:00,
2013-03-30 12:30:00,46.0,22.6,30.21,WNW,301,0.0,0.0,39,-99.99,,,-99.99,VWS V14.01,2013-03-30 16:30:00,
2013-03-30 12:35:00,46.2,23.2,30.21,WNW,301,0.0,0.0,40,-99.99,,,-99.99,VWS V14.01,2013-03-30 16:35:00,
2013-03-30 12:40:00,46.4,23.2,30.21,SE,125,0.0,0.0,40,-99.99,,,-99.99,VWS V14.01,2013-03-30 16:40:00,
2013-03-30 12:45:00,46.6,23.7,30.20,SE,125,0.0,0.0,40,-99.99,,,-99.99,VWS V14.01,2013-03-30 16:45:00,
2013-03-30 12:50:00,47.1,22.4,30.20,ESE,107,0.0,0.0,37,-99.99,,,-99.99,VWS V14.01,2013-03-30 16:50:00,
2013-03-30 12:55:00,47.8,24.9,30.20,ESE,107,0.0,0.0,40,-99.99,,,-99.99,VWS V14.01,2013-03-30 16:55:00,
2013-03-30 13:00:00,48.3,24.9,30.20,NNE,13,4.9,8.0,40,-99.99,,,-99.99,VWS V14.01,2013-03-30 17:00:00,
2013-03-30 13:05:00,48.5,23.7,30.19,NNE,13,0.0,0.0,37,-99.99,,,-99.99,VWS V14.01,2013-03-30 17:05:00,
2013-03-30 13:10:00,48.6,23.1,30.19,ESE,118,0.0,0.0,36,-99.99,,,-99.99,VWS V14.01,2013-03-30 17:10:00,
2013-03-30 13:14:00,48.7,22.4,30.19,East,87,0.0,0.0,35,-99.99,,,-99.99,VWS V14.01,2013-03-30 17:14:00,
2013-03-30 13:19:00,49.3,26.1,30.19,NNE,14,0.0,5.9,40,-99.99,,,-99.99,VWS V14.01,2013-03-30 17:19:00,
2013-03-30 13:24:00,49.7,22.6,30.19,West,269,0.0,0.0,34,-99.99,,,-99.99,VWS V14.01,2013-03-30 17:24:00,
2013-03-30 13:29:00,49.9,22.2,30.19,West,269,0.0,0.0,33,-99.99,,,-99.99,VWS V14.01,2013-03-30 17:29:00,
2013-03-30 13:34:00,49.8,22.1,30.19,West,269,0.0,0.0,33,-99.99,,,-99.99,VWS V14.01,2013-03-30 17:34:00,
2013-03-30 13:39:00,50.4,23.1,30.19,West,269,0.0,0.0,34,-99.99,,,-99.99,VWS V14.01,2013-03-30 17:39:00,
2013-03-30 13:44:00,50.8,23.7,30.18,West,269,0.0,0.0,34,-99.99,,,-99.99,VWS V14.01,2013-03-30 17:44:00,
2013-03-30 13:49:00,51.1,21.3,30.18,WNW,302,0.0,3.1,31,-99.99,,,-99.99,VWS V14.01,2013-03-30 17:49:00,
2013-03-30 13:54:00,51.0,20.9,30.18,WNW,285,0.0,0.0,30,-99.99,,,-99.99,VWS V14.01,2013-03-30 17:54:00,
2013-03-30 13:59:00,51.0,22.4,30.18,WNW,288,0.0,0.0,32,-99.99,,,-99.99,VWS V14.01,2013-03-30 17:59:00,
2013-03-30 14:04:00,51.2,22.4,30.18,WNW,288,0.0,0.0,32,-99.99,,,-99.99,VWS V14.01,2013-03-30 18:04:00,
2013-03-30 14:09:00,51.1,19.9,30.18,NW,312,0.0,0.0,29,-99.99,,,-99.99,VWS V14.01,2013-03-30 18:09:00,
2013-03-30 14:14:00,50.8,20.5,30.18,NW,312,0.0,0.0,30,-99.99,,,-99.99,VWS V14.01,2013-03-30 18:14:00,
2013-03-30 14:19:00,50.6,20.0,30.18,NW,312,0.0,0.0,30,-99.99,,,-99.99,VWS V14.01,2013-03-30 18:19:00,
2013-03-30 14:24:00,50.6,21.0,30.17,NW,312,0.0,0.0,31,-99.99,,,-99.99,VWS V14.01,2013-03-30 18:24:00,
2013-03-30 14:29:00,50.7,20.5,30.17,NW,312,0.0,0.0,30,-99.99,,,-99.99,VWS V14.01,2013-03-30 18:29:00,
2013-03-30 14:34:00,50.7,19.0,30.16,WSW,257,6.4,6.4,28,-99.99,,,-99.99,VWS V14.01,2013-03-30 18:34:00,
2013-03-30 14:39:00,50.7,18.8,30.16,WNW,285,0.0,0.0,28,-99.99,,,-99.99,VWS V14.01,2013-03-30 18:39:00,
2013-03-30 14:44:00,50.8,19.3,30.16,WNW,285,0.0,0.0,28,-99.99,,,-99.99,VWS V14.01,2013-03-30 18:44:00,
2013-03-30 14:49:00,50.9,19.2,30.16,SSW,210,0.0,0.0,28,-99.99,,,-99.99,VWS V14.01,2013-03-30 18:49:00,
2013-03-30 14:54:00,51.0,20.8,30.16,NW,312,0.0,0.0,30,-99.99,,,-99.99,VWS V14.01,2013-03-30 18:54:00,
2013-03-30 14:59:00,51.0,20.4,30.16,NW,312,0.0,0.0,30,-99.99,,,-99.99,VWS V14.01,2013-03-30 18:59:00,
2013-03-30 15:04:00,51.1,20.4,30.16,NW,312,0.0,0.0,30,-99.99,,,-99.99,VWS V14.01,2013-03-30 19:04:00,
2013-03-30 15:09:00,51.2,20.7,30.17,NW,312,0.0,0.0,30,-99.99,,,-99.99,VWS V14.01,2013-03-30 19:09:00,
2013-03-30 15:14:00,51.4,21.6,30.17,NW,312,0.0,0.0,31,-99.99,,,-99.99,VWS V14.01,2013-03-30 19:14:00,
2013-03-30 15:19:00,51.5,22.0,30.17,NW,312,0.0,0.0,31,-99.99,,,-99.99,VWS V14.01,2013-03-30 19:19:00,
2013-03-30 15:24:00,51.8,20.9,30.16,ESE,112,0.0,0.0,29,-99.99,,,-99.99,VWS V14.01,2013-03-30 19:24:00,
2013-03-30 15:29:00,51.9,20.1,30.16,West,263,5.3,5.5,28,-99.99,,,-99.99,VWS V14.01,2013-03-30 19:29:00,
2013-03-30 15:34:00,51.9,20.2,30.16,NNW,340,9.6,9.6,28,-99.99,,,-99.99,VWS V14.01,2013-03-30 19:34:00,
2013-03-30 15:39:00,52.1,22.0,30.16,WSW,256,4.5,7.0,30,-99.99,,,-99.99,VWS V14.01,2013-03-30 19:39:00,
2013-03-30 15:44:00,52.4,21.8,30.16,NNW,332,0.0,5.2,30,-99.99,,,-99.99,VWS V14.01,2013-03-30 19:44:00,
2013-03-30 15:49:00,52.3,19.7,30.15,NNW,332,0.0,0.0,27,-99.99,,,-99.99,VWS V14.01,2013-03-30 19:49:00,
2013-03-30 15:54:00,52.2,21.0,30.15,WNW,300,0.0,0.0,29,-99.99,,,-99.99,VWS V14.01,2013-03-30 19:54:00,
2013-03-30 15:59:00,52.4,21.9,30.15,WNW,300,0.0,0.0,30,-99.99,,,-99.99,VWS V14.01,2013-03-30 19:59:00,
2013-03-30 16:04:00,52.7,22.9,30.15,NW,315,8.9,9.8,31,-99.99,,,-99.99,VWS V14.01,2013-03-30 20:04:00,
2013-03-30 16:09:00,52.3,19.9,30.15,NW,318,0.0,0.0,28,-99.99,,,-99.99,VWS V14.01,2013-03-30 20:09:00,
2013-03-30 16:14:00,52.2,20.7,30.15,West,278,0.0,5.2,29,-99.99,,,-99.99,VWS V14.01,2013-03-30 20:14:00,
2013-03-30 16:19:00,52.3,21.2,30.14,West,278,0.0,0.0,29,-99.99,,,-99.99,VWS V14.01,2013-03-30 20:19:00,
2013-03-30 16:24:00,52.7,21.4,30.14,West,278,0.0,0.0,29,-99.99,,,-99.99,VWS V14.01,2013-03-30 20:24:00,
2013-03-30 16:29:00,52.9,21.8,30.14,West,278,0.0,0.0,29,-99.99,,,-99.99,VWS V14.01,2013-03-30 20:29:00,
2013-03-30 16:34:00,53.1,22.1,30.14,West,281,0.0,0.0,30,-99.99,,,-99.99,VWS V14.01,2013-03-30 20:34:00,
2013-03-30 16:39:00,53.3,22.4,30.14,NW,323,0.0,0.0,30,-99.99,,,-99.99,VWS V14.01,2013-03-30 20:39:00,
2013-03-30 16:44:00,53.1,21.5,30.14,NW,316,0.0,0.0,29,-99.99,,,-99.99,VWS V14.01,2013-03-30 20:44:00,
2013-03-30 16:49:00,52.9,21.2,30.13,West,271,0.0,0.0,29,-99.99,,,-99.99,VWS V14.01,2013-03-30 20:49:00,
2013-03-30 16:54:00,52.5,20.0,30.14,SE,134,0.0,0.0,28,-99.99,,,-99.99,VWS V14.01,2013-03-30 20:54:00,
2013-03-30 16:59:00,52.1,20.5,30.14,NW,321,0.0,0.0,29,-99.99,,,-99.99,VWS V14.01,2013-03-30 20:59:00,
2013-03-30 17:04:00,52.4,20.4,30.13,NW,321,0.0,0.0,28,-99.99,,,-99.99,VWS V14.01,2013-03-30 21:04:00,
2013-03-30 17:09:00,52.2,20.9,30.13,SE,136,0.0,0.0,29,-99.99,,,-99.99,VWS V14.01,2013-03-30 21:09:00,
2013-03-30 17:14:00,52.4,23.0,30.13,SE,136,0.0,0.0,32,-99.99,,,-99.99,VWS V14.01,2013-03-30 21:14:00,
2013-03-30 17:19:00,52.9,21.0,30.13,WSW,242,0.0,0.0,28,-99.99,,,-99.99,VWS V14.01,2013-03-30 21:19:00,
2013-03-30 17:24:00,53.1,20.4,30.13,WSW,242,0.0,0.0,27,-99.99,,,-99.99,VWS V14.01,2013-03-30 21:24:00,
2013-03-30 17:29:00,53.1,20.3,30.13,WSW,242,0.0,0.0,27,-99.99,,,-99.99,VWS V14.01,2013-03-30 21:29:00,
2013-03-30 17:34:00,53.0,20.7,30.13,WSW,257,0.0,0.0,28,-99.99,,,-99.99,VWS V14.01,2013-03-30 21:34:00,
2013-03-30 17:39:00,53.0,20.5,30.13,WSW,257,0.0,0.0,28,-99.99,,,-99.99,VWS V14.01,2013-03-30 21:39:00,
2013-03-30 17:44:00,52.9,21.0,30.13,WSW,257,0.0,0.0,28,-99.99,,,-99.99,VWS V14.01,2013-03-30 21:44:00,
2013-03-30 17:49:00,52.9,20.5,30.12,WSW,257,0.0,0.0,28,-99.99,,,-99.99,VWS V14.01,2013-03-30 21:49:00,
2013-03-30 17:54:00,52.9,22.0,30.12,WSW,257,0.0,0.0,30,-99.99,,,-99.99,VWS V14.01,2013-03-30 21:54:00,
2013-03-30 17:59:00,52.5,20.6,30.12,WSW,257,0.0,0.0,28,-99.99,,,-99.99,VWS V14.01,2013-03-30 21:59:00,
2013-03-30 18:04:00,52.2,22.0,30.12,WSW,257,0.0,0.0,30,-99.99,,,-99.99,VWS V14.01,2013-03-30 22:04:00,
2013-03-30 18:09:00,52.0,20.1,30.12,West,270,0.0,0.0,28,-99.99,,,-99.99,VWS V14.01,2013-03-30 22:09:00,
2013-03-30 18:14:00,51.9,20.2,30.12,West,270,0.0,0.0,28,-99.99,,,-99.99,VWS V14.01,2013-03-30 22:14:00,
2013-03-30 18:19:00,51.8,21.1,30.12,West,270,0.0,0.0,30,-99.99,,,-99.99,VWS V14.01,2013-03-30 22:19:00,
2013-03-30 18:24:00,51.7,21.3,30.12,West,270,0.0,0.0,30,-99.99,,,-99.99,VWS V14.01,2013-03-30 22:24:00,
2013-03-30 18:29:00,51.8,21.1,30.12,West,270,0.0,0.0,30,-99.99,,,-99.99,VWS V14.01,2013-03-30 22:29:00,
2013-03-30 18:34:00,51.8,21.6,30.12,West,270,0.0,0.0,30,-99.99,,,-99.99,VWS V14.01,2013-03-30 22:34:00,
2013-03-30 18:39:00,51.7,21.3,30.12,West,270,0.0,0.0,30,-99.99,,,-99.99,VWS V14.01,2013-03-30 22:39:00,
2013-03-30 18:44:00,51.4,19.8,30.12,ESE,120,0.0,0.0,28,-99.99,,,-99.99,VWS V14.01,2013-03-30 22:44:00,
2013-03-30 18:49:00,51.0,21.0,30.12,ESE,120,0.0,0.0,30,-99.99,,,-99.99,VWS V14.01,2013-03-30 22:49:00,
2013-03-30 18:54:00,50.7,20.1,30.12,ESE,120,0.0,0.0,30,-99.99,,,-99.99,VWS V14.01,2013-03-30 22:54:00,
2013-03-30 18:59:00,50.5,20.2,30.12,ESE,120,0.0,0.0,30,-99.99,,,-99.99,VWS V14.01,2013-03-30 22:59:00,
2013-03-30 19:04:00,50.3,20.3,30.12,ESE,120,0.0,0.0,30,-99.99,,,-99.99,VWS V14.01,2013-03-30 23:04:00,
2013-03-30 19:09:00,50.2,21.0,30.12,ESE,120,0.0,0.0,31,-99.99,,,-99.99,VWS V14.01,2013-03-30 23:09:00,
2013-03-30 19:14:00,50.1,21.2,30.12,ESE,120,0.0,0.0,32,-99.99,,,-99.99,VWS V14.01,2013-03-30 23:14:00,
2013-03-30 19:19:00,49.8,20.7,30.12,ESE,120,0.0,0.0,31,-99.99,,,-99.99,VWS V14.01,2013-03-30 23:19:00,
2013-03-30 19:24:00,49.7,22.1,30.12,ESE,120,0.0,0.0,34,-99.99,,,-99.99,VWS V14.01,2013-03-30 23:24:00,
2013-03-30 19:29:00,49.5,23.1,30.12,ESE,120,0.0,0.0,35,-99.99,,,-99.99,VWS V14.01,2013-03-30 23:29:00,
2013-03-30 19:34:00,49.4,22.7,30.12,ESE,120,0.0,0.0,35,-99.99,,,-99.99,VWS V14.01,2013-03-30 23:34:00,
2013-03-30 19:39:00,49.1,23.5,30.12,ESE,120,0.0,0.0,36,-99.99,,,-99.99,VWS V14.01,2013-03-30 23:39:00,
2013-03-30 19:44:00,48.6,23.0,30.12,ESE,120,0.0,0.0,36,-99.99,,,-99.99,VWS V14.01,2013-03-30 23:44:00,
2013-03-30 19:49:00,48.0,22.8,30.12,ESE,120,0.0,0.0,37,-99.99,,,-99.99,VWS V14.01,2013-03-30 23:49:00,
2013-03-30 19:54:00,47.5,25.3,30.12,ESE,120,0.0,0.0,42,-99.99,,,-99.99,VWS V14.01,2013-03-30 23:54:00,
2013-03-30 19:59:00,46.4,25.7,30.12,ESE,120,0.0,0.0,44,-99.99,,,-99.99,VWS V14.01,2013-03-30 23:59:00,
2013-03-30 20:04:00,45.4,25.7,30.12,ESE,120,0.0,0.0,46,-99.99,,,-99.99,VWS V14.01,2013-03-31 00:04:00,
2013-03-30 20:09:00,44.8,25.7,30.12,ESE,120,0.0,0.0,47,-99.99,,,-99.99,VWS V14.01,2013-03-31 00:09:00,
2013-03-30 20:14:00,44.3,26.1,30.12,ESE,120,0.0,0.0,48,-99.99,,,-99.99,VWS V14.01,2013-03-31 00:14:00,
2013-03-30 20:19:00,43.9,25.9,30.12,ESE,120,0.0,0.0,49,-99.99,,,-99.99,VWS V14.01,2013-03-31 00:19:00,
2013-03-30 20:24:00,43.5,26.3,30.12,ESE,120,0.0,0.0,50,-99.99,,,-99.99,VWS V14.01,2013-03-31 00:24:00,
2013-03-30 20:29:00,43.2,26.0,30.12,ESE,120,0.0,0.0,50,-99.99,,,-99.99,VWS V14.01,2013-03-31 00:29:00,
2013-03-30 20:34:00,42.9,26.1,30.12,ESE,120,0.0,0.0,51,-99.99,,,-99.99,VWS V14.01,2013-03-31 00:34:00,
2013-03-30 20:39:00,42.5,25.8,30.12,ESE,120,0.0,0.0,51,-99.99,,,-99.99,VWS V14.01,2013-03-31 00:39:00,
2013-03-30 20:44:00,41.8,25.5,30.12,ESE,120,0.0,0.0,52,-99.99,,,-99.99,VWS V14.01,2013-03-31 00:44:00,
2013-03-30 20:49:00,41.6,26.1,30.12,ESE,120,0.0,0.0,54,-99.99,,,-99.99,VWS V14.01,2013-03-31 00:49:00,
2013-03-30 20:53:00,41.2,25.9,30.12,ESE,120,0.0,0.0,54,-99.99,,,-99.99,VWS V14.01,2013-03-31 00:53:00,
2013-03-30 20:58:00,41.0,26.4,30.12,ESE,120,0.0,0.0,56,-99.99,,,-99.99,VWS V14.01,2013-03-31 00:58:00,
2013-03-30 21:03:00,40.6,26.1,30.12,ESE,120,0.0,0.0,56,-99.99,,,-99.99,VWS V14.01,2013-03-31 01:03:00,
2013-03-30 21:08:00,40.3,26.2,30.12,ESE,120,0.0,0.0,57,-99.99,,,-99.99,VWS V14.01,2013-03-31 01:08:00,
2013-03-30 21:13:00,40.0,26.3,30.12,ESE,120,0.0,0.0,58,-99.99,,,-99.99,VWS V14.01,2013-03-31 01:13:00,
2013-03-30 21:18:00,39.8,26.1,30.12,ESE,120,0.0,0.0,58,-99.99,,,-99.99,VWS V14.01,2013-03-31 01:18:00,
2013-03-30 21:23:00,39.6,26.1,30.11,ESE,120,0.0,0.0,58,-99.99,,,-99.99,VWS V14.01,2013-03-31 01:23:00,
2013-03-30 21:28:00,39.4,26.1,30.11,ESE,120,0.0,0.0,58,-99.99,,,-99.99,VWS V14.01,2013-03-31 01:28:00,
2013-03-30 21:33:00,39.3,26.3,30.11,ESE,120,0.0,0.0,59,-99.99,,,-99.99,VWS V14.01,2013-03-31 01:33:00,
2013-03-30 21:38:00,39.1,26.4,30.11,ESE,120,0.0,0.0,60,-99.99,,,-99.99,VWS V14.01,2013-03-31 01:38:00,
2013-03-30 21:43:00,38.9,26.3,30.11,ESE,120,0.0,0.0,60,-99.99,,,-99.99,VWS V14.01,2013-03-31 01:43:00,
2013-03-30 21:48:00,38.8,26.2,30.11,ESE,120,0.0,0.0,60,-99.99,,,-99.99,VWS V14.01,2013-03-31 01:48:00,
2013-03-30 21:53:00,38.7,26.2,30.11,ESE,120,0.0,0.0,60,-99.99,,,-99.99,VWS V14.01,2013-03-31 01:53:00,
2013-03-30 21:58:00,38.6,26.2,30.11,ESE,120,0.0,0.0,61,-99.99,,,-99.99,VWS V14.01,2013-03-31 01:58:00,
2013-03-30 22:03:00,38.3,26.0,30.11,ESE,120,0.0,0.0,61,-99.99,,,-99.99,VWS V14.01,2013-03-31 02:03:00,